Regional Weather Roundup
Issued by NWS

Home | Current Version | Previous Version | Graphics & Text | Print | Product List | Glossary Off
Versions: 1 2 3 4 5 6 7 8 9 10 11 12 13 14 15 16 17 18 19 20 21 22 23 24 25 26 27 28 29 30 31 32 33 34 35 36 37 38 39 40 41 42 43 44 45 46 47 48 49 50

000
ASUS43 KDMX 241606
RWRIA

WEATHER ROUNDUP FOR IOWA
NATIONAL WEATHER SERVICE DES MOINES IA
1100 AM CDT SAT JUN 24 2017

NOTE: "FAIR" INDICATES FEW OR NO CLOUDS BELOW 12,000 FEET WITH NO
SIGNIFICANT WEATHER AND/OR OBSTRUCTIONS TO VISIBILITY.

* - THESE STATIONS ARE NOT NWS STATIONS...THUS NOT UNDER NWS
QUALITY CONTROL.  THEY ALSO DO NOT REPORT WEATHER SUCH
AS PRECIPITATION OR FOG.

IAZ001>003-012>014-020>022-031>034-043>046-241700-
   NORTHWEST IOWA

CITY           SKY/WX    TMP DP  RH WIND       PRES   REMARKS
CARROLL *      SUNNY     70  39  32 W14G23    30.14F
CHEROKEE *     SUNNY     68  42  38 W15G24    30.13F
DENISON *      SUNNY     70  41  35 W14G20    30.17S
LE MARS *      SUNNY     70  41  35 W16G24    30.13F
ORANGE CITY *  SUNNY     68  45  42 W16       30.12F
SHELDON *      SUNNY     68  41  37 W17G25    30.10S
SIOUX CITY     SUNNY     73  45  36 CALM      30.14F
SPENCER        SUNNY     69  39  33 W21G26    30.10F
STORM LAKE *   SUNNY     68  41  37 W15       30.13F
$$

IAZ055>058-069>071-079>083-090>094-241700-
   SOUTHWEST IOWA

CITY           SKY/WX    TMP DP  RH WIND       PRES   REMARKS
ATLANTIC *     SUNNY     70  45  40 W9        30.18R
AUDUBON *      SUNNY     70  41  35 W7        30.17S
CLARINDA *     SUNNY     70  46  43 W10       30.22S
COUNCIL BLFS * SUNNY     70  45  40 W9        30.19R
CRESTON *      SUNNY     70  41  35 NW16      30.20R
HARLAN  *      SUNNY     68  45  42 W10       30.20S
LAMONI         SUNNY     70  43  37 NW10      30.19R
RED OAK *      SUNNY     72  45  37 NW9G15    30.19S
SHENANDOAH *   SUNNY     70  46  43 W6G14     30.21S
$$

IAZ047>049-059>061-072>074-084-241700-
   CENTRAL IOWA

CITY           SKY/WX    TMP DP  RH WIND       PRES   REMARKS
AMES           SUNNY     69  41  36 NW14      30.13S
ANKENY *       SUNNY     68  41  37 NW14G21   30.15S
BOONE *        SUNNY     68  39  34 W12G21    30.13S
CHARITON *     SUNNY     70  43  37 NW13G21   30.17R
DES MOINES     SUNNY     71  37  28 NW14      30.14R
GRINNELL*      SUNNY     67  39  35 NW18      30.14R
KNOXVILLE *    SUNNY     68  39  34 NW17      30.14R
MARSHALLTOWN   SUNNY     66  40  38 NW18G25   30.11R
NEWTON *       SUNNY     66  39  37 NW15G24   30.13S
PELLA *        SUNNY     68  41  36 NW12G20   30.15R
PERRY *          N/A     68  38  32 NW13      30.15S
$$

IAZ004>006-015-016-023>025-035-036-241700-
   NORTH CENTRAL IOWA

CITY           SKY/WX    TMP DP  RH WIND       PRES   REMARKS
ALGONA *       SUNNY     66  41  39 W17G23    30.11S
CLARION *        N/A     66  41  39 NW16G23   30.11S
ESTHERVILLE    SUNNY     64  41  42 W16G22    30.09F
FORT DODGE *   SUNNY     68  43  40 NW9       30.13S
MASON CITY     SUNNY     65  40  39 NW17      30.10S
FOREST CITY *    N/A     66  30  26 NW15G24   30.10S
WEBSTER CITY * SUNNY     66  37  34 NW14G23   30.10F
IOWA FALLS *     N/A     66  42  41 W16       30.12S
$$

IAZ007>011-017>019-026>030-037>042-050>054-066-241700-
   NORTHEAST IOWA

CITY           SKY/WX    TMP DP  RH WIND       PRES   REMARKS
CEDAR RAPIDS   SUNNY     67  46  47 NW20G30   30.09R
CHARLES CITY * SUNNY     63  41  45 NW18G25   30.08S
CLINTON *      PTSUNNY   68  48  48 NW18G25   30.05
DECORAH *      SUNNY     61  41  48 NW15G31   30.04R
DUBUQUE        MOSUNNY   66  46  48 NW21      30.05R
MONTICELLO *   SUNNY     66  45  45 NW22      30.06R
OELWEIN *      SUNNY     64  45  48 NW22      30.08R
WATERLOO       SUNNY     66  41  40 NW15      30.08R
$$

IAZ064-065-067-068-078-241700-
   EAST CENTRAL IOWA

CITY           SKY/WX    TMP DP  RH WIND       PRES   REMARKS
DAVENPORT      MOSUNNY   67  47  48 W18G30    30.07R
IOWA CITY      SUNNY     69  42  37 NW16G26   30.11R
MT. PLEASANT * SUNNY     69  42  37 W15G22    30.13R
MUSCATINE *    SUNNY     70  43  37 NW16G25   30.10R
QUAD CITIES    PTSUNNY   71  48  43 W15G24    30.06R
$$

IAZ062-063-075>077-085>089-095>099-241700-
   SOUTHEAST IOWA

CITY           SKY/WX    TMP DP  RH WIND       PRES   REMARKS
BURLINGTON     SUNNY     71  47  42 NW14G23   30.11R
FAIRFIELD *    SUNNY     70  41  35 NW17      30.13R
FORT MADISON * SUNNY     72  46  40 NW18      30.13R
KEOKUK *       SUNNY     72  45  37 NW14G21   30.13R
OSKALOOSA *      N/A     68  42  38 NW13G18   30.15R
CENTERVILLE *    N/A     68  45  42 NW8G20    30.19R
OTTUMWA        SUNNY     71  42  35 NW15G22   30.14R
WASHINGTON *   SUNNY     68  43  40 W13G23    30.13R
$$

ABBREVIATIONS USED IN REMARKS
   TC - TEMPERATURES IN CELSIUS
  WCI - WIND CHILL INDEX
   HX - HEAT INDEX
  VSB - VISIBILITY
$$





USA.gov is the U.S. government's official web portal to all federal, state and local government web resources and services.